Gurwin Techsat 1B - Orbit

View from above orbital plane
View from above orbital plane
View from above satellite
View from above satellite

Ground track
Ground track

The orbit data is extracted from the following two-line orbital elements,

1 25397U 98043D   13140.83860929  .00000034  00000-0  33182-4 0   757
2 25397 098.4122 109.7900 0001846 059.8411 331.3910 14.23340476772052
Epoch (UTC): 20 May 2013 20:07:35
Eccentricity: 0.0001846
inclination: 98.4122°
perigee height: 813 km
apogee height: 815 km
right ascension of ascending node: 109.7900°
argument of perigee: 59.8411°
revolutions per day: 14.23340476
mean anomaly at epoch: 331.3910°
orbit number at epoch: 77205

The dashed part of the orbit path shows where the satellite is in the earth's shadow,  

Developed and maintained by Chris Peat, Heavens-Above GmbH. Please read the updated FAQ before sending e-mail. Imprint. DLR